2023/02/18 00:00:00,32.6, 1.7
2023/02/18 00:10:00,32.6, 1.7
2023/02/18 00:20:00,32.6, 1.9
2023/02/18 00:30:00,32.6, 1.4
2023/02/18 00:40:00,32.6, 2.0
2023/02/18 00:50:00,32.6, 3.3
2023/02/18 01:00:00,32.6, 3.6
2023/02/18 01:10:00,32.6, 3.2
2023/02/18 01:20:00,32.5, 2.0
2023/02/18 01:30:00,32.6, 2.0
2023/02/18 01:40:00,32.5, 2.8
2023/02/18 01:50:00,32.5, 3.3
2023/02/18 02:00:00,32.5, 2.5
2023/02/18 02:10:00,32.5, 3.6
2023/02/18 02:20:00,32.5, 2.4
2023/02/18 02:30:00,32.5, 2.3
2023/02/18 02:40:00,32.5, 1.5
2023/02/18 02:50:00,32.5, 1.6
2023/02/18 03:00:00,32.5, 2.2
2023/02/18 03:10:00,32.6, 1.6
2023/02/18 03:20:00,32.5, 1.4
2023/02/18 03:30:00,32.5, 1.3
2023/02/18 03:40:00,32.5, 1.4
2023/02/18 03:50:00,32.5, 1.2
2023/02/18 04:00:00,32.5, 1.5
2023/02/18 04:10:00,32.5, 1.6
2023/02/18 04:20:00,32.5, 2.0
2023/02/18 04:30:00,32.5, 2.1
2023/02/18 04:40:00,32.5, 2.4
2023/02/18 04:50:00,32.4, 1.8
2023/02/18 05:00:00,32.4, 1.7
2023/02/18 05:10:00,32.4, 2.0
2023/02/18 05:20:00,32.4, 2.1
2023/02/18 05:30:00,32.4, 2.5
2023/02/18 05:40:00,32.2, 3.9
2023/02/18 05:50:00,32.0, 4.2
2023/02/18 06:00:00,31.9, 4.3
2023/02/18 06:10:00,31.8, 3.9
2023/02/18 06:20:00,31.8, 3.8
2023/02/18 06:30:00,31.8, 2.6
2023/02/18 06:40:00,31.8, 2.3
2023/02/18 06:50:00,31.7, 3.2
2023/02/18 07:00:00,31.8, 3.6
2023/02/18 07:10:00,31.8, 3.7
2023/02/18 07:20:00,31.7, 3.7
2023/02/18 07:30:00,31.6, 3.4
2023/02/18 07:40:00,31.5, 4.2
2023/02/18 07:50:00,31.4, 4.4
2023/02/18 08:00:00,31.4, 3.8
2023/02/18 08:10:00,31.2, 3.9
2023/02/18 08:20:00,30.7, 4.6
2023/02/18 08:30:00,30.4, 4.7
2023/02/18 08:40:00,30.1, 4.5
2023/02/18 08:50:00,30.1, 4.2
2023/02/18 09:00:00,30.2, 4.6
2023/02/18 09:10:00,30.2, 4.3
2023/02/18 09:20:00,30.1, 4.4
2023/02/18 09:30:00,30.1, 4.2
2023/02/18 09:40:00,30.3, 3.8
2023/02/18 09:50:00,30.2, 4.6
2023/02/18 10:00:00,30.1, 4.2
2023/02/18 10:10:00,29.9, 4.1
2023/02/18 10:20:00,29.8, 4.4
2023/02/18 10:30:00,29.8, 4.2
2023/02/18 10:40:00,29.8, 4.8
2023/02/18 10:50:00,29.7, 4.4
2023/02/18 11:00:00,29.7, 4.7
2023/02/18 11:10:00,29.4, 4.8
2023/02/18 11:20:00,29.2, 4.3
2023/02/18 11:30:00,29.0, 4.9
2023/02/18 11:40:00,28.9, 4.7
2023/02/18 11:50:00,28.8, 4.9
2023/02/18 12:00:00,28.4, 5.3
2023/02/18 12:10:00,27.8, 5.6
2023/02/18 12:20:00,27.6, 6.0
2023/02/18 12:30:00,27.4, 6.0
2023/02/18 12:40:00,27.4, 6.2
2023/02/18 12:50:00,27.2, 6.0
2023/02/18 13:00:00,27.3, 6.2
2023/02/18 13:10:00,27.3, 6.0
2023/02/18 13:20:00,27.3, 6.4
2023/02/18 13:30:00,27.1, 6.0
2023/02/18 13:40:00,26.7, 5.9
2023/02/18 13:50:00,26.8, 5.9
2023/02/18 14:00:00,27.0, 6.1
2023/02/18 14:10:00,26.9, 6.4
2023/02/18 14:20:00,26.8, 6.1
2023/02/18 14:30:00,26.5, 6.0
2023/02/18 14:40:00,25.9, 6.6
2023/02/18 14:50:00,25.1, 6.3
2023/02/18 15:00:00,24.8, 6.1
2023/02/18 15:10:00,24.9, 6.2
2023/02/18 15:20:00,24.9, 6.4
2023/02/18 15:30:00,25.0, 6.0
2023/02/18 15:40:00,24.9, 6.2
2023/02/18 15:50:00,25.1, 6.4
2023/02/18 16:00:00,24.8, 6.6
2023/02/18 16:10:00,24.1, 6.3
2023/02/18 16:20:00,23.6, 6.2
2023/02/18 16:30:00,23.5, 6.0
2023/02/18 16:40:00,23.4, 6.3
2023/02/18 16:50:00,23.8, 6.0
2023/02/18 17:00:00,23.3, 6.2
2023/02/18 17:10:00,23.3, 6.2
2023/02/18 17:20:00,22.9, 6.1
2023/02/18 17:30:00,22.7, 6.5
2023/02/18 17:40:00,22.3, 6.4
2023/02/18 17:50:00,22.4, 6.1
2023/02/18 18:00:00,22.4, 5.5
2023/02/18 18:10:00,22.6, 4.8
2023/02/18 18:20:00,22.1, 5.2
2023/02/18 18:30:00,21.8, 5.0
2023/02/18 18:40:00,21.8, 6.1
2023/02/18 18:50:00,21.6, 6.0
2023/02/18 19:00:00,21.5, 5.4
2023/02/18 19:10:00,21.7, 6.4
2023/02/18 19:20:00,21.8, 5.8
2023/02/18 19:30:00,22.0, 5.6
2023/02/18 19:40:00,21.9, 5.5
2023/02/18 19:50:00,21.6, 6.1
2023/02/18 20:00:00,21.6, 5.7
2023/02/18 20:10:00,21.3, 5.9
2023/02/18 20:20:00,21.1, 5.0
2023/02/18 20:30:00,21.1, 4.8
2023/02/18 20:40:00,21.1, 5.0
2023/02/18 20:50:00,21.0, 5.0
2023/02/18 21:00:00,20.8, 4.9
2023/02/18 21:10:00,20.8, 4.9
2023/02/18 21:20:00,21.0, 5.0
2023/02/18 21:30:00,20.9, 4.2
2023/02/18 21:40:00,20.8, 5.1
2023/02/18 21:50:00,20.9, 4.9
2023/02/18 22:00:00,20.8, 4.9
2023/02/18 22:10:00,20.8, 4.6
2023/02/18 22:20:00,20.8, 4.3
2023/02/18 22:30:00,20.8, 5.5
2023/02/18 22:40:00,20.5, 5.0
2023/02/18 22:50:00,20.5, 4.9
2023/02/18 23:00:00,20.4, 5.3
2023/02/18 23:10:00,20.3, 6.3
2023/02/18 23:20:00,20.2, 6.0
2023/02/18 23:30:00,20.1, 4.9
2023/02/18 23:40:00,20.1, 6.3
2023/02/18 23:50:00,20.2, 6.0
